Photometre #140[NE_1.6] Ersa AOT

File : 20200923_140.hum

23/09/2020,06:00:44,TEMP=19.4,BA=5.60,STAT.A=Abs.,ExtBa=13.93
23/09/2020,06:04:15,TEMP=19.4,BA=5.60,STAT.A=Abs.,ExtBa=13.93
23/09/2020,06:08:23,TEMP=19.4,BA=5.60,STAT.A=Abs.,ExtBa=13.93
23/09/2020,06:13:16,TEMP=19.5,BA=5.60,STAT.A=Abs.,ExtBa=13.94
23/09/2020,06:19:10,TEMP=19.6,BA=5.60,STAT.A=Abs.,ExtBa=13.94
23/09/2020,06:26:28,TEMP=20.0,BA=5.52,STAT.A=Abs.,ExtBa=13.95
23/09/2020,06:35:40,TEMP=20.2,BA=5.60,STAT.B=Abs.,ExtBa=13.95
23/09/2020,06:40:05,TEMP=20.3,BA=5.56,STAT.A=Abs.,ExtBa=13.95
23/09/2020,06:45:01,TEMP=20.5,BA=5.56,STAT.A=Abs.,ExtBa=13.95
23/09/2020,06:50:35,TEMP=20.6,BA=5.60,STAT.A=Abs.,ExtBa=13.94
23/09/2020,06:56:55,TEMP=20.9,BA=5.60,STAT.A=Abs.,ExtBa=13.94
23/09/2020,07:04:12,TEMP=21.3,BA=5.60,STAT.C=Abs.,ExtBa=13.91
23/09/2020,07:12:40,TEMP=21.2,BA=5.60,STAT.A=Abs.,ExtBa=13.90
23/09/2020,07:22:41,TEMP=21.1,BA=5.60,STAT.A=Abs.,ExtBa=13.93
23/09/2020,07:34:42,TEMP=21.0,BA=5.60,STAT.A=Abs.,ExtBa=13.94
23/09/2020,07:49:31,TEMP=21.2,BA=5.60,STAT.A=Abs.,ExtBa=13.95
23/09/2020,08:08:22,TEMP=21.8,BA=5.60,STAT.B=Abs.,ExtBa=13.95
23/09/2020,08:15:17,TEMP=22.5,BA=5.56,STAT.F,ExtBa=13.95
23/09/2020,08:30:16,TEMP=23.1,BA=5.60,STAT.D=Abs.,ExtBa=13.94
23/09/2020,08:45:16,TEMP=23.8,BA=5.60,STAT.D=Abs.,ExtBa=13.94
23/09/2020,09:00:16,TEMP=24.1,BA=5.60,STAT.D=Abs.,ExtBa=13.89
23/09/2020,09:15:18,TEMP=24.5,BA=5.60,STAT.F,ExtBa=13.86
23/09/2020,09:30:16,TEMP=24.4,BA=5.60,STAT.D=Abs.,ExtBa=13.62
23/09/2020,09:45:16,TEMP=24.9,BA=5.60,STAT.D=Abs.,ExtBa=13.85
23/09/2020,10:00:16,TEMP=25.3,BA=5.60,STAT.D=Abs.,ExtBa=13.93
23/09/2020,10:15:18,TEMP=25.5,BA=5.60,STAT.F,ExtBa=13.95
23/09/2020,10:30:16,TEMP=25.2,BA=5.60,STAT.D=Abs.,ExtBa=13.96
23/09/2020,10:45:16,TEMP=25.6,BA=5.60,STAT.D=Abs.,ExtBa=13.95
23/09/2020,11:00:16,TEMP=25.5,BA=5.60,STAT.D=Abs.,ExtBa=13.96
23/09/2020,11:15:18,TEMP=25.8,BA=5.60,STAT.F,ExtBa=13.97
23/09/2020,11:30:16,TEMP=25.7,BA=5.60,STAT.D=Abs.,ExtBa=13.95
23/09/2020,11:45:16,TEMP=25.0,BA=5.60,STAT.D=Abs.,ExtBa=13.94
23/09/2020,12:00:16,TEMP=24.1,BA=5.60,STAT.D=Abs.,ExtBa=13.94
23/09/2020,12:15:18,TEMP=23.9,BA=5.60,STAT.F,ExtBa=13.93
23/09/2020,12:30:16,TEMP=23.6,BA=5.60,STAT.D=Abs.,ExtBa=13.92
23/09/2020,12:45:16,TEMP=23.6,BA=5.60,STAT.D=Abs.,ExtBa=13.92
23/09/2020,13:00:16,TEMP=23.6,BA=5.60,STAT.D=Abs.,ExtBa=13.92
23/09/2020,13:15:18,TEMP=23.5,BA=5.60,STAT.F,ExtBa=13.91
23/09/2020,13:30:16,TEMP=22.8,BA=5.60,STAT.D=Abs.,ExtBa=13.92
23/09/2020,13:45:16,TEMP=21.5,BA=5.60,STAT.D=Abs.,ExtBa=13.91
23/09/2020,14:00:16,TEMP=21.3,BA=5.60,STAT.D=Abs.,ExtBa=13.92
23/09/2020,14:15:17,TEMP=20.5,BA=5.60,STAT.F,ExtBa=13.91
23/09/2020,14:22:12,TEMP=20.9,BA=5.60,STAT.B=Abs.,ExtBa=13.92
23/09/2020,14:41:03,TEMP=22.2,BA=5.60,STAT.A=Abs.,ExtBa=13.92
23/09/2020,14:55:52,TEMP=22.8,BA=5.60,STAT.A=Abs.,ExtBa=13.92
23/09/2020,15:07:53,TEMP=22.9,BA=5.60,STAT.A=Abs.,ExtBa=13.93
23/09/2020,15:17:54,TEMP=23.0,BA=5.60,STAT.A=Abs.,ExtBa=13.92
23/09/2020,15:26:22,TEMP=23.0,BA=5.60,STAT.C=Abs.,ExtBa=13.92
23/09/2020,15:33:39,TEMP=23.1,BA=5.60,STAT.A=Abs.,ExtBa=13.93
23/09/2020,15:39:59,TEMP=23.1,BA=5.60,STAT.A=Abs.,ExtBa=13.91
23/09/2020,15:45:33,TEMP=23.0,BA=5.52,STAT.A=Abs.,ExtBa=13.91
23/09/2020,15:50:29,TEMP=23.0,BA=5.60,STAT.A=Abs.,ExtBa=13.91
23/09/2020,15:54:53,TEMP=23.1,BA=5.60,STAT.B=Abs.,ExtBa=13.88
23/09/2020,16:04:06,TEMP=23.6,BA=5.60,STAT.A=Abs.,ExtBa=13.92
23/09/2020,16:11:22,TEMP=23.3,BA=5.60,STAT.A=Abs.,ExtBa=13.91
23/09/2020,16:17:16,TEMP=23.4,BA=5.60,STAT.A=Abs.,ExtBa=13.93
23/09/2020,16:22:10,TEMP=23.6,BA=5.56,STAT.A=Abs.,ExtBa=13.87
23/09/2020,16:26:17,TEMP=23.8,BA=5.56,STAT.A=Abs.,ExtBa=13.82
23/09/2020,16:29:48,TEMP=23.8,BA=5.56,STAT.A=Abs.,ExtBa=13.76